Flag for Austria Weather past 2 weeks in Kapfenberg, Styria, Austria

Now
59 °F

Heavy rain. Low clouds.


Feels Like: 58 °F
Forecast: 49 / 77 °F
Wind: 6 mph from West

Location: Zeltweg

Current Time: Aug 2, 2015 at 1:17:07 PM

Latest Report: Aug 2, 2015 at 11:50 AM


Visibility: 2 mi

Pressure: 30.12 "Hg (28.37 "Hg at 504m altitude)

Humidity: 100%

Dew point: 59 °F

Location of KapfenbergLocation

Historic Weather in Kapfenberg — Graph

°F

Kapfenberg temperature yesterday

Maximum temperature yesterday: 75 °F (at 2:50 PM)
Minimum temperature yesterday: 48 °F (at 5:50 AM)
Average temperature yesterday: 66 °F

Past Weeks' High & Low Weather Summary

 TemperatureHumidityPressure
High90 °F (Jul 19, 2:50 PM)100% (Jul 19, 5:50 AM)30.18 "Hg (Jul 19, 5:50 AM)
Low48 °F (Aug 1, 5:50 AM)31% (Jul 18, 4:50 PM)29.80 "Hg (Jul 27, 5:50 AM)
Average68 °F74%29.99 "Hg
* Reported Jul 18 11:20 AM — Aug 2 11:50 AM, Kapfenberg, Weather by CustomWeather, © 2015

Note: Actual official high and low records may vary slightly from our data, if they occured in-between our weather recording intervals... More about our weather records

Advertising

Kapfenberg weather history for previous 24 hours

 ConditionsComfort  
Time TempWeatherWind HumidityBarometerVisibility
11:50 AM
Sun, Aug 2
59 °FHeavy rain. Low clouds.6 mph100%30.12 "Hg2 mi
10:50 AM59 °FRain. Low clouds.5 mph100%30.09 "Hg3 mi
9:50 AM59 °FRain. Low clouds.8 mph100%30.09 "Hg2 mi
8:50 AM61 °FSprinkles. Low clouds.7 mph88%30.07 "Hg4 mi
7:50 AM59 °FFog.9 mph94%30.07 "Hg3 mi
6:50 AM61 °FLight rain. Broken clouds.3 mph94%30.07 "Hg4 mi
5:50 AM61 °FLight rain. Mostly cloudy.2 mph94%30.07 "Hg5 mi
4:50 AM61 °FLight rain. Low clouds.2 mph94%30.07 "Hg6 mi
10:50 PM
Sat, Aug 1
64 °FLight rain. Partly cloudy.2 mph73%30.07 "Hg19 mi
9:50 PM66 °FPassing clouds.7 mph64%30.07 "Hg19 mi
8:50 PM68 °FBroken clouds.6 mph60%30.04 "Hg25 mi
7:50 PM68 °FBroken clouds.5 mph60%30.01 "Hg25 mi
6:50 PM72 °FBroken clouds.7 mph53%30.01 "Hg25 mi
5:50 PM73 °FBroken clouds.7 mph50%30.01 "Hg25 mi
4:50 PM73 °FBroken clouds.8 mph47%30.04 "Hg25 mi
3:50 PM75 °FBroken clouds.5 mph39%30.01 "Hg25 mi
2:50 PM75 °FBroken clouds.3 mph39%30.04 "Hg25 mi
1:50 PM72 °FScattered clouds.5 mph44%30.04 "Hg25 mi
Weather by CustomWeather, © 2015

See weather overviewHow to use our weather pages